Simultaneous Nadir Overpasses (SNOs) Predictions

Prediction of SNOs between AQUA and NPP Satellite Orbit:

Table of predicted SNOs for the next 14.0 days since TLE Epoch: 12/31/2011
Index Date (AQUA) Time (AQUA) Lat,Lon (AQUA) SZA (AQUA ) Date (NPP) Time (NPP) Lat,Lon (NPP) SZA (NPP ) Distance(km) Time Diff (sec)
1 12/31/2011 21:48:26 -75.75, -88.89 59.86 12/31/2011 21:47:38 -75.76, -88.86 59.83 0.81 48
2 12/31/2011 22:37:28 76.89, 82.50 118.88 12/31/2011 22:37:57 76.90, 82.59 118.83 2.45 29
3 01/03/2012 14:04:50 -76.12, 28.09 60.41 01/03/2012 14:04:20 -76.12, 28.15 60.40 1.71 30
4 01/03/2012 14:54:01 76.82,-161.91 118.80 01/03/2012 14:54:49 76.81,-162.00 118.78 2.51 48
5 01/06/2012 06:21:20 -76.16, 144.10 60.67 01/06/2012 06:21:09 -76.15, 144.04 60.64 1.63 11
6 01/06/2012 07:10:23 77.23, -44.50 118.12 01/06/2012 07:11:29 77.23, -44.50 118.06 0.08 66
7 01/08/2012 21:48:40 75.30, 89.80 120.02 01/08/2012 21:47:31 75.29, 89.75 120.09 1.50 69
8 01/08/2012 22:37:38 -76.74, -98.07 61.59 01/08/2012 22:37:45 -76.75, -97.98 61.62 2.43 7
9 01/11/2012 14:05:02 75.62,-153.40 119.34 01/11/2012 14:04:12 75.62,-153.47 119.41 2.19 50




NCC Satellite Simultaneous Nadir Overpasses (SNOs) Prediction Service
